Location: Claremont
(33.9858°S, 18.4575°E)
Time: 12:00:51
(UTC+00:00)

Cosmos 2208 Rocket - Pass Details

Date: 03 March 2021
Orbit: 754 x 805 km, 74.0° (Epoch: 21 April)

Event Time Altitude Azimuth Distance (km) Brightness Sun altitude
Rises 19:05:11 0° 197° (SSW) 3,352 7.9 -21.8°
Reaches altitude 10° 19:07:37 10° 196° (SSW) 2,413 7.1 -22.2°
Maximum altitude 19:13:09 85° 107° (ESE) 818 4.0 -23.3°
Enters shadow 19:14:37 51° 23° (NNE) 1,013 4.3 -23.5°
